ICON (44628 NORAD) Tracking and Keplerian Element Data

This shows tracking and keplerian element data for the satellite.

Feedback or suggestion? Click here.




ElementValue
Catalog44628
NameICON
Epoch Orbit412
Epoch Day311.63229735
Epoch Year2019
RAAN47.0101
Inclination26.9908
Eccentricity0.001892
Argument of Perigee70.491
Mean Anonmoly289.7695
Mean Motion14.91592481
Decay Rate4.28E-06
L11 44628U 19068A 19311.63229735 .00000428 00000-0 21931-4 0 9994
L22 44628 26.9908 47.0101 0018920 70.4910 289.7695 14.91592481 4121

Live tracking and technical data element details for ICON (NORAD 44628). ICON can be tracked NOW for your location showing map with azimuth and elevation plus other details from your city location.

Track the satellite on the map from your city or location and see movement details for azimuth, elevation, latitude, longitude, range, height, and movement on the map or in text.







IsCatalogInMostPopularTable: catalog: 44628, numindb: 8
Update: records affected: 1



GetName: 44628 ICON

Hit Count: updated at: Thu, 14 Nov 2019 06:21:45 GMT